This is the latest recevied weather packets stored in our database for station/object DG3RAP-11. If no packets are shown the sender has not sent any weather packets the latest 1 day(s).
| Time | Temp. | Humidity | Pressure | Rain* | Wind** | Luminosity | Snow |
|---|---|---|---|---|---|---|---|
| 1777985103 | 24.44° C | 31% | 1005.8 hPa | 0 mm | 1.79 m/s, 279° | - | - |
| 1777984563 | 24.44° C | 32% | 1005.8 hPa | 0 mm | 1.79 m/s, 291° | - | - |
| 1777984023 | 23.89° C | 31% | 1005.8 hPa | 0 mm | 0.89 m/s, 54° | - | - |
| 1777983483 | 24.44° C | 29% | 1006 hPa | 0 mm | 0.89 m/s, 331° | - | - |
| 1777982943 | 25.56° C | 27% | 1006.2 hPa | 0 mm | 0.89 m/s, 314° | - | - |
| 1777982403 | 25.56° C | 29% | 1006 hPa | 0 mm | 0.89 m/s, 312° | - | - |
| 1777982043 | 25.56° C | 31% | 1006 hPa | 0 mm | 1.79 m/s, 315° | - | - |
| 1777981503 | 25.56° C | 32% | 1006.3 hPa | 0 mm | 0.89 m/s, 311° | - | - |
| 1777980963 | 24.44° C | 33% | 1006.2 hPa | 0 mm | 1.34 m/s, 297° | - | - |
| 1777980423 | 25° C | 34% | 1006.4 hPa | 0 mm | 0.89 m/s, 275° | - | - |
| 1777979883 | 24.44° C | 34% | 1006.5 hPa | 0 mm | 0.45 m/s, 334° | - | - |
| 1777979343 | 23.89° C | 35% | 1006.7 hPa | 0 mm | 2.68 m/s, 282° | - | - |
| 1777978803 | 25° C | 38% | 1006.7 hPa | 0 mm | 0.89 m/s, 304° | - | - |
| 1777978443 | 23.89° C | 35% | 1006.6 hPa | 0 mm | 0.89 m/s, 308° | - | - |
| 1777977903 | 25° C | 36% | 1007 hPa | 0 mm | 0.89 m/s, 273° | - | - |
| 1777977363 | 23.33° C | 42% | 1006.7 hPa | 0 mm | 0.89 m/s, 285° | - | - |
| 1777976823 | 23.33° C | 41% | 1007.1 hPa | 0 mm | 0.45 m/s, 281° | - | - |
| 1777976283 | 21.67° C | 43% | 1007.3 hPa | 0 mm | 0.89 m/s, 271° | - | - |
| 1777975743 | 23.33° C | 42% | 1007.3 hPa | 0 mm | 0.45 m/s, 272° | - | - |
| 1777975203 | 23.89° C | 43% | 1007.4 hPa | 0 mm | 0.89 m/s, 284° | - | - |
| 1777974843 | 22.78° C | 45% | 1007.5 hPa | 0 mm | 1.34 m/s, 279° | - | - |
| 1777974303 | 22.22° C | 45% | 1007.7 hPa | 0 mm | 0.89 m/s, 269° | - | - |
| 1777973763 | 22.22° C | 48% | 1007.7 hPa | 0 mm | 0.89 m/s, 282° | - | - |
| 1777973223 | 21.67° C | 49% | 1007.6 hPa | 0 mm | 1.34 m/s, 274° | - | - |
| 1777972683 | 21.67° C | 50% | 1007.7 hPa | 0 mm | 0.45 m/s, 279° | - | - |
* Rain latest hour (hover to see other rain measurements)
** Current wind speed in m/s (hover to see current wind gust speed)